When you browse on this site, cookies collect data to enhance your experience and personalize the content and advertising you see.
Visit our Privacy Policy to learn more. By continuing to use the site, you agree to this use of cookies and data.
  • En España
  • Lista de países
  • Para 7 días
  • Temperatura del agua
  • El tiempo en el mapa
  • Informadores
  • user-avatar
    Iniciar sesión

    Tiempo cada hora Aylesbury

    Hoy, 6 Diciembre, Viernes

    Tiempo Temperatura Precipitaciones Viento Presión Humedad
    00:00 +9°C° 0 mm 8 mps 749 mmHg 86%
    01:00 +9°C° 0 mm 8 mps 749 mmHg 87%
    02:00 +9°C° 0 mm 8 mps 748 mmHg 88%
    03:00 +9°C° 0 mm 8 mps 747 mmHg 89%
    04:00 +9°C° 0.3 mm 8 mps 747 mmHg 91%
    05:00 +9°C° 0.3 mm 8 mps 747 mmHg 92%
    06:00 +9°C° 0 mm 7 mps 747 mmHg 92%
    07:00 +10°C° 0.3 mm 7 mps 746 mmHg 92%
    08:00 +10°C° 0.3 mm 8 mps 745 mmHg 92%
    09:00 +10°C° 0.3 mm 8 mps 745 mmHg 91%
    10:00 +11°C° 0.1 mm 8 mps 744 mmHg 89%
    11:00 +11°C° 0.1 mm 8 mps 744 mmHg 87%
    12:00 +11°C° 0.1 mm 8 mps 744 mmHg 85%
    13:00 +11°C° 0.3 mm 8 mps 743 mmHg 84%
    14:00 +10°C° 0.3 mm 8 mps 743 mmHg 83%
    15:00 +10°C° 0.3 mm 9 mps 742 mmHg 82%
    16:00 +9°C° 0.4 mm 8 mps 743 mmHg 82%
    17:00 +7°C° 0.4 mm 8 mps 744 mmHg 83%
    18:00 +6°C° 0.4 mm 7 mps 744 mmHg 83%
    19:00 +6°C° 0 mm 7 mps 745 mmHg 84%
    20:00 +7°C° 0 mm 6 mps 746 mmHg 84%
    21:00 +7°C° 0 mm 6 mps 747 mmHg 85%
    22:00 +7°C° 0 mm 6 mps 748 mmHg 87%
    23:00 +6°C° 0 mm 5 mps 748 mmHg 88%

    Mañana, 7 Diciembre, Sábado

    Tiempo Temperatura Precipitaciones Viento Presión Humedad
    00:00 +6°C° 0 mm 5 mps 749 mmHg 90%
    01:00 +6°C° 0 mm 5 mps 749 mmHg 91%
    02:00 +5°C° 0 mm 5 mps 749 mmHg 91%
    03:00 +5°C° 0 mm 5 mps 750 mmHg 92%
    04:00 +5°C° 0 mm 4 mps 750 mmHg 93%
    05:00 +5°C° 0 mm 4 mps 750 mmHg 93%
    06:00 +4°C° 0 mm 4 mps 751 mmHg 93%
    07:00 +5°C° 0 mm 4 mps 751 mmHg 93%
    08:00 +5°C° 0 mm 4 mps 751 mmHg 93%
    09:00 +5°C° 0 mm 4 mps 752 mmHg 93%
    10:00 +6°C° 0 mm 4 mps 752 mmHg 90%
    11:00 +7°C° 0 mm 4 mps 752 mmHg 87%
    12:00 +8°C° 0 mm 5 mps 752 mmHg 83%
    13:00 +8°C° 0 mm 4 mps 752 mmHg 84%
    14:00 +7°C° 0 mm 4 mps 751 mmHg 86%
    15:00 +7°C° 0 mm 4 mps 751 mmHg 87%
    16:00 +7°C° 0 mm 4 mps 751 mmHg 89%
    17:00 +6°C° 0 mm 5 mps 751 mmHg 91%
    18:00 +6°C° 0 mm 5 mps 751 mmHg 93%
    19:00 +6°C° 0 mm 5 mps 750 mmHg 93%
    20:00 +5°C° 0 mm 6 mps 749 mmHg 92%
    21:00 +5°C° 0 mm 6 mps 749 mmHg 92%
    22:00 +6°C° 0 mm 7 mps 748 mmHg 91%
    23:00 +7°C° 0 mm 8 mps 747 mmHg 91%

    Pasado mañana, 8 Diciembre, Domingo

    Tiempo Temperatura Precipitaciones Viento Presión Humedad
    00:00 +7°C° 0 mm 9 mps 746 mmHg 90%
    01:00 +8°C° 0.4 mm 9 mps 744 mmHg 91%
    02:00 +8°C° 0.4 mm 10 mps 743 mmHg 91%
    03:00 +9°C° 0.4 mm 10 mps 741 mmHg 91%
    04:00 +9°C° 0.5 mm 10 mps 741 mmHg 87%
    05:00 +10°C° 0.5 mm 9 mps 741 mmHg 83%
    06:00 +10°C° 0.5 mm 8 mps 741 mmHg 79%
    07:00 +9°C° 0 mm 8 mps 741 mmHg 80%
    08:00 +8°C° 0 mm 7 mps 742 mmHg 81%
    09:00 +5°C° 0 mm 7 mps 742 mmHg 82%
    10:00 +6°C° 0.1 mm 7 mps 742 mmHg 79%
    11:00 +6°C° 0.1 mm 8 mps 742 mmHg 77%
    12:00 +6°C° 0.1 mm 9 mps 742 mmHg 74%
    13:00 +6°C° 0.1 mm 9 mps 741 mmHg 75%
    14:00 +5°C° 0.1 mm 9 mps 741 mmHg 75%
    15:00 +5°C° 0.1 mm 8 mps 741 mmHg 76%
    16:00 +5°C° 0 mm 8 mps 740 mmHg 76%
    17:00 +4°C° 0 mm 8 mps 740 mmHg 77%
    18:00 +4°C° 0 mm 8 mps 740 mmHg 78%
    19:00 +3°C° 0 mm 9 mps 739 mmHg 79%
    20:00 +3°C° 0 mm 10 mps 738 mmHg 80%
    21:00 +3°C° 0 mm 11 mps 737 mmHg 81%
    22:00 +3°C° 0.4 mm 11 mps 736 mmHg 81%
    23:00 +4°C° 0.4 mm 11 mps 735 mmHg 80%

    9 Diciembre, Lunes

    Tiempo Temperatura Precipitaciones Viento Presión Humedad
    00:00 +4°C° 0.4 mm 11 mps 734 mmHg 80%
    01:00 +3°C° 0.2 mm 10 mps 734 mmHg 83%
    02:00 +3°C° 0.2 mm 10 mps 734 mmHg 85%
    03:00 +2°C° 0.2 mm 9 mps 733 mmHg 88%
    04:00 +2°C° 0.4 mm 8 mps 734 mmHg 87%
    05:00 +2°C° 0.4 mm 8 mps 735 mmHg 85%
    06:00 +3°C° 0.4 mm 7 mps 735 mmHg 84%
    07:00 +4°C° 0 mm 7 mps 737 mmHg 83%
    08:00 +4°C° 0 mm 8 mps 739 mmHg 83%
    09:00 +4°C° 0 mm 8 mps 741 mmHg 82%
    10:00 +5°C° 0 mm 8 mps 742 mmHg 79%
    11:00 +5°C° 0 mm 8 mps 744 mmHg 76%
    12:00 +6°C° 0 mm 7 mps 745 mmHg 72%
    13:00 +5°C° 0 mm 7 mps 747 mmHg 72%
    14:00 +5°C° 0 mm 7 mps 748 mmHg 71%
    15:00 +4°C° 0 mm 7 mps 749 mmHg 70%
    16:00 +3°C° 0 mm 6 mps 751 mmHg 71%
    17:00 +3°C° 0 mm 5 mps 752 mmHg 73%
    18:00 +2°C° 0 mm 5 mps 754 mmHg 74%
    19:00 +1°C° 0 mm 4 mps 755 mmHg 76%
    20:00 +1°C° 0 mm 4 mps 756 mmHg 79%
    21:00 +1°C° 0 mm 3 mps 757 mmHg 81%
    22:00 +1°C° 0 mm 3 mps 757 mmHg 82%
    23:00 +2°C° 0 mm 2 mps 757 mmHg 83%

    10 Diciembre, Martes

    Tiempo Temperatura Precipitaciones Viento Presión Humedad
    00:00 +1°C° 0 mm 2 mps 758 mmHg 84%
    01:00 +1°C° 0 mm 2 mps 758 mmHg 84%
    02:00 +1°C° 0 mm 2 mps 757 mmHg 84%
    03:00 +1°C° 0 mm 2 mps 757 mmHg 84%
    04:00 0°C° 0 mm 3 mps 757 mmHg 84%
    05:00 +1°C° 0 mm 3 mps 756 mmHg 83%
    06:00 0°C° 0 mm 4 mps 756 mmHg 83%
    07:00 +1°C° 0 mm 5 mps 755 mmHg 83%
    08:00 +2°C° 0 mm 5 mps 754 mmHg 83%
    09:00 +3°C° 0 mm 6 mps 753 mmHg 83%
    10:00 +4°C° 0.3 mm 7 mps 752 mmHg 84%
    11:00 +5°C° 0.3 mm 8 mps 751 mmHg 86%
    12:00 +5°C° 0.3 mm 9 mps 749 mmHg 87%
    13:00 +6°C° 0.6 mm 10 mps 748 mmHg 88%
    14:00 +6°C° 0.6 mm 10 mps 746 mmHg 90%
    15:00 +7°C° 0.6 mm 11 mps 744 mmHg 91%
    16:00 +8°C° 0.2 mm 11 mps 743 mmHg 90%
    17:00 +8°C° 0.2 mm 11 mps 742 mmHg 89%
    18:00 +9°C° 0.2 mm 11 mps 741 mmHg 89%
    19:00 +7°C° 1.7 mm 10 mps 741 mmHg 88%
    20:00 +6°C° 1.7 mm 8 mps 742 mmHg 88%
    21:00 +4°C° 1.7 mm 7 mps 742 mmHg 87%
    22:00 +3°C° 0 mm 6 mps 743 mmHg 86%
    23:00 +3°C° 0 mm 6 mps 744 mmHg 84%

    11 Diciembre, Miércoles

    Tiempo Temperatura Precipitaciones Viento Presión Humedad
    00:00 +2°C° 0 mm 5 mps 745 mmHg 83%
    01:00 +2°C° 0 mm 5 mps 745 mmHg 82%
    02:00 +2°C° 0 mm 5 mps 745 mmHg 81%
    03:00 +1°C° 0 mm 5 mps 745 mmHg 81%
    04:00 +1°C° 0 mm 5 mps 745 mmHg 82%
    05:00 +1°C° 0 mm 5 mps 745 mmHg 84%
    06:00 +1°C° 0 mm 6 mps 745 mmHg 85%
    07:00 +1°C° 0 mm 6 mps 744 mmHg 86%
    08:00 +2°C° 0 mm 5 mps 744 mmHg 87%
    09:00 +2°C° 0 mm 5 mps 744 mmHg 87%
    10:00 +2°C° 0 mm 5 mps 744 mmHg 84%
    11:00 +3°C° 0 mm 5 mps 743 mmHg 81%
    12:00 +5°C° 0 mm 4 mps 743 mmHg 78%
    13:00 +4°C° 0.2 mm 4 mps 743 mmHg 82%
    14:00 +4°C° 0.2 mm 4 mps 742 mmHg 86%
    15:00 +3°C° 0.2 mm 4 mps 742 mmHg 90%
    16:00 +3°C° 0 mm 4 mps 742 mmHg 90%
    17:00 +1°C° 0 mm 4 mps 742 mmHg 90%
    18:00 +1°C° 0 mm 4 mps 742 mmHg 90%
    19:00 +1°C° 0 mm 4 mps 742 mmHg 88%
    20:00 0°C° 0 mm 5 mps 742 mmHg 87%
    21:00 0°C° 0 mm 5 mps 742 mmHg 85%
    22:00 -1°C° 0 mm 6 mps 742 mmHg 87%
    23:00 +1°C° 0 mm 6 mps 741 mmHg 88%
    Mostrar más